Flag for Turkey

Past Weather in Kahramanmaraş, Turkey — Yesterday and Last 2 Weeks

Now
84 °F

Clear.


Feels Like: 87 °F
Forecast: 98 / 65 °F
Wind: 22 mph from West

Location: Kahramanmaraş

Current Time: Jul 13, 2020 at 9:44:18 pm

Latest Report: Jul 13, 2020 at 8:50 pm


Visibility: 10 mi

Pressure: 29.59 "Hg (27.79 "Hg at 556m altitude)

Humidity: 55%

Dew Point: 66 °F

Location of KahramanmaraşLocation

Past Weather in Kahramanmaraş — Graph

°F

Kahramanmaraş Temperature Yesterday

Maximum temperature yesterday: 95 °F (at 1:50 pm)
Minimum temperature yesterday: 73 °F (at 5:50 am)
Average temperature yesterday: 84 °F

High & Low Weather Summary for the Past Weeks

 TemperatureHumidityPressure
High104 °F (Jul 5, 2:50 pm)83% (Jun 29, 4:50 am)29.80 "Hg (Jun 29, 4:50 am)
Low64 °F (Jul 1, 4:50 am)13% (Jul 4, 12:50 pm)29.50 "Hg (Jul 6, 2:50 pm)
Average85 °F49%29.66 "Hg
* Reported Jun 28 7:27 pm — Jul 13 7:50 pm, Kahramanmaraş. Weather by CustomWeather, © 2020

Note: Actual official high and low records may vary slightly from our data, if they occured in-between our weather recording intervals... More about our weather records

Kahramanmaraş Weather History for the Previous 24 Hours

Scroll right to see more
 ConditionsComfort  
Time TempWeatherWind HumidityBarometerVisibility
7:50 pm
Mon, Jul 13
86 °FPassing clouds.23 mph55%29.56 "HgN/A
6:50 pm90 °FPassing clouds.23 mph46%29.53 "HgN/A
5:50 pm93 °FPassing clouds.21 mph39%29.53 "HgN/A
4:50 pm95 °FPassing clouds.21 mph34%29.53 "HgN/A
3:50 pm97 °FPassing clouds.17 mph30%29.53 "HgN/A
2:50 pm99 °FPassing clouds.16 mph17%29.53 "HgN/A
1:50 pm99 °FPassing clouds.16 mph17%29.53 "HgN/A
12:50 pm97 °FPassing clouds.16 mph20%29.56 "HgN/A
11:50 am95 °FSunny.16 mph22%29.56 "Hg10 mi
10:50 am91 °FSunny.14 mph24%29.56 "Hg10 mi
9:50 am90 °FSunny.15 mph29%29.56 "Hg10 mi
8:50 am86 °FSunny.14 mph35%29.59 "Hg10 mi
7:50 am82 °FPassing clouds.14 mph42%29.59 "HgN/A
6:50 am79 °FSunny.18 mph48%29.59 "Hg10 mi
5:50 am77 °FSunny.22 mph61%29.59 "Hg10 mi
4:50 am77 °FClear.24 mph65%29.56 "Hg10 mi
3:50 am79 °FClear.23 mph65%29.56 "Hg10 mi
2:50 am79 °FClear.23 mph65%29.56 "Hg10 mi
1:50 am79 °FClear.23 mph65%29.59 "Hg10 mi
12:50 am81 °FClear.23 mph62%29.59 "Hg10 mi
11:50 pm
Sun, Jul 12
81 °FPassing clouds.26 mph62%29.59 "HgN/A
10:50 pm82 °FPassing clouds.25 mph62%29.62 "HgN/A
9:50 pm82 °FPassing clouds.22 mph62%29.62 "HgN/A
Weather by CustomWeather, © 2020

See weather overview